Terminal Aerodrome Forecast
Issued by NWS

Home | Current Version | Previous Version | Text Only | Print | Product List | Glossary On
Versions: 1 2 3 4 5 6 7 8 9 10 11 12 13 14 15 16
000
FTUS43 KPAH 260706 AAA
TAFCGI
TAF AMD
KCGI 260706Z 2607/2706 05010KT 4SM -RA BR SCT007 OVC050
      TEMPO 2607/2608 2SM -RA BR OVC007
     FM260800 36015G20KT 3SM -RA BR OVC015
     FM261200 35015G21KT 5SM -SHRA BR BKN015
     FM261900 36010KT P6SM SCT250=

USA.gov is the U.S. government's official web portal to all federal, state and local government web resources and services.